TimeCDT,TemperatureF,Dew PointF,Humidity,Sea Level PressureIn,VisibilityMPH,Wind Direction,Wind SpeedMPH,Gust SpeedMPH,PrecipitationIn,Events,Conditions,WindDirDegrees,DateUTC
12:15 AM,21.9,15.8,77,30.30,10.0,Calm,Calm,-,N/A,,Clear,0,2012-10-07 05:15:00
12:35 AM,21.7,16.0,78,30.30,10.0,NW,3.5,-,N/A,,Clear,310,2012-10-07 05:35:00
12:55 AM,21.4,16.2,80,30.30,10.0,NNW,3.5,-,N/A,,Clear,330,2012-10-07 05:55:00
1:15 AM,23.0,17.6,80,30.30,10.0,Calm,Calm,-,N/A,,Clear,0,2012-10-07 06:15:00
1:35 AM,27.5,19.4,72,30.29,10.0,Calm,Calm,-,N/A,,Clear,0,2012-10-07 06:35:00
1:55 AM,20.1,15.1,81,30.29,10.0,Calm,Calm,-,N/A,,Clear,0,2012-10-07 06:55:00
2:15 AM,22.1,16.0,77,30.29,10.0,Calm,Calm,-,N/A,,Clear,0,2012-10-07 07:15:00
2:35 AM,21.9,16.3,79,30.29,10.0,Calm,Calm,-,N/A,,Clear,0,2012-10-07 07:35:00
2:55 AM,21.2,16.2,81,30.28,10.0,Calm,Calm,-,N/A,,Clear,0,2012-10-07 07:55:00
3:15 AM,20.1,15.3,81,30.27,10.0,Calm,Calm,-,N/A,,Clear,0,2012-10-07 08:15:00
3:35 AM,18.9,14.0,81,30.27,10.0,NNW,3.5,-,N/A,,Clear,330,2012-10-07 08:35:00
3:55 AM,18.3,14.2,84,30.26,10.0,Calm,Calm,-,N/A,,Clear,0,2012-10-07 08:55:00
4:15 AM,19.8,14.5,80,30.26,10.0,Calm,Calm,-,N/A,,Clear,0,2012-10-07 09:15:00
4:35 AM,21.6,15.4,77,30.25,10.0,Calm,Calm,-,N/A,,Clear,0,2012-10-07 09:35:00
4:55 AM,21.0,14.4,75,30.25,10.0,Calm,Calm,-,N/A,,Clear,0,2012-10-07 09:55:00
5:15 AM,23.2,17.4,79,30.25,10.0,NNW,4.6,-,N/A,,Clear,330,2012-10-07 10:15:00
5:35 AM,19.8,14.2,79,30.24,10.0,NW,3.5,-,N/A,,Clear,320,2012-10-07 10:35:00
5:55 AM,18.3,14.7,86,30.24,10.0,Calm,Calm,-,N/A,,Clear,0,2012-10-07 10:55:00
6:15 AM,21.2,16.9,83,30.24,10.0,Calm,Calm,-,N/A,,Clear,0,2012-10-07 11:15:00
6:35 AM,23.4,19.8,86,30.24,10.0,Calm,Calm,-,N/A,,Clear,0,2012-10-07 11:35:00
6:55 AM,20.8,16.9,85,30.24,10.0,Calm,Calm,-,N/A,,Clear,0,2012-10-07 11:55:00
7:15 AM,25.3,22.5,89,30.24,10.0,NNW,3.5,-,N/A,,Clear,340,2012-10-07 12:15:00
7:35 AM,26.6,23.0,86,30.23,10.0,NW,3.5,-,N/A,,Clear,320,2012-10-07 12:35:00
7:55 AM,27.5,23.7,86,30.23,10.0,NW,4.6,-,N/A,,Clear,320,2012-10-07 12:55:00
8:15 AM,28.9,24.8,84,30.23,10.0,NW,4.6,-,N/A,,Clear,320,2012-10-07 13:15:00
8:35 AM,30.9,25.9,82,30.23,10.0,NNW,3.5,-,N/A,,Clear,340,2012-10-07 13:35:00
8:55 AM,33.1,27.0,78,30.22,10.0,Calm,Calm,-,N/A,,Clear,0,2012-10-07 13:55:00
9:15 AM,36.0,27.9,72,30.22,10.0,Calm,Calm,-,N/A,,Clear,0,2012-10-07 14:15:00
9:35 AM,39.7,28.2,63,30.22,10.0,WSW,5.8,-,N/A,,Clear,250,2012-10-07 14:35:00
9:55 AM,41.2,27.9,59,30.20,10.0,West,5.8,-,N/A,,Clear,260,2012-10-07 14:55:00
10:15 AM,42.4,27.7,56,30.20,10.0,WSW,9.2,-,N/A,,Clear,250,2012-10-07 15:15:00
10:35 AM,44.1,27.9,53,30.20,10.0,SW,11.5,-,N/A,,Clear,230,2012-10-07 15:35:00
10:55 AM,45.7,27.5,49,30.19,10.0,SW,10.4,-,N/A,,Clear,230,2012-10-07 15:55:00
11:15 AM,48.0,26.2,43,30.18,10.0,WSW,11.5,-,N/A,,Clear,250,2012-10-07 16:15:00
11:35 AM,48.7,24.6,39,30.17,10.0,West,11.5,-,N/A,,Clear,260,2012-10-07 16:35:00
11:55 AM,50.9,22.1,32,30.16,10.0,West,13.8,23.0,N/A,,Clear,260,2012-10-07 16:55:00
12:15 PM,51.8,21.0,30,30.15,10.0,West,12.7,21.9,N/A,,Clear,260,2012-10-07 17:15:00
12:35 PM,52.5,20.3,28,30.14,10.0,West,15.0,19.6,N/A,,Clear,260,2012-10-07 17:35:00
12:55 PM,52.7,20.8,29,30.13,10.0,WSW,16.1,21.9,N/A,,Clear,240,2012-10-07 17:55:00
1:15 PM,54.3,19.6,26,30.12,10.0,WSW,16.1,21.9,N/A,,Clear,240,2012-10-07 18:15:00
1:35 PM,54.7,20.1,26,30.11,10.0,WSW,18.4,25.3,N/A,,Clear,240,2012-10-07 18:35:00
1:55 PM,55.6,20.3,25,30.09,10.0,WSW,12.7,20.7,N/A,,Clear,250,2012-10-07 18:55:00
2:15 PM,55.2,19.6,25,30.08,10.0,SW,16.1,-,N/A,,Clear,220,2012-10-07 19:15:00
2:35 PM,56.1,19.4,24,30.06,10.0,WSW,17.3,25.3,N/A,,Clear,240,2012-10-07 19:35:00
2:55 PM,56.5,18.9,23,30.05,10.0,WSW,16.1,21.9,N/A,,Clear,240,2012-10-07 19:55:00
3:15 PM,57.6,18.9,22,30.04,10.0,SW,18.4,24.2,N/A,,Clear,230,2012-10-07 20:15:00
3:35 PM,57.9,19.9,23,30.03,10.0,WSW,15.0,18.4,N/A,,Clear,240,2012-10-07 20:35:00
3:55 PM,58.1,20.1,23,30.02,10.0,SW,13.8,20.7,N/A,,Clear,220,2012-10-07 20:55:00
4:15 PM,57.6,20.7,24,30.02,10.0,WSW,12.7,23.0,N/A,,Clear,240,2012-10-07 21:15:00
4:35 PM,58.1,21.0,24,30.01,10.0,WSW,13.8,19.6,N/A,,Clear,240,2012-10-07 21:35:00
4:55 PM,57.9,21.2,24,30.01,10.0,WSW,16.1,19.6,N/A,,Clear,240,2012-10-07 21:55:00
5:15 PM,57.4,21.2,25,30.00,10.0,WSW,12.7,20.7,N/A,,Clear,240,2012-10-07 22:15:00
5:35 PM,57.2,21.4,25,30.00,10.0,SW,13.8,21.9,N/A,,Clear,230,2012-10-07 22:35:00
5:55 PM,57.2,21.0,25,29.99,10.0,WSW,10.4,18.4,N/A,,Clear,250,2012-10-07 22:55:00
6:15 PM,56.3,21.7,26,29.99,10.0,WSW,9.2,-,N/A,,Clear,240,2012-10-07 23:15:00
6:35 PM,55.2,22.6,28,29.98,10.0,SSW,8.1,-,N/A,,Clear,210,2012-10-07 23:35:00
6:55 PM,52.5,22.1,31,29.98,10.0,SSW,5.8,-,N/A,,Clear,210,2012-10-07 23:55:00
7:15 PM,50.0,21.9,33,29.97,10.0,SSW,5.8,-,N/A,,Clear,200,2012-10-08 00:15:00
7:35 PM,46.8,22.3,38,29.98,10.0,SSW,5.8,-,N/A,,Clear,200,2012-10-08 00:35:00
7:55 PM,45.7,23.0,41,29.98,7.0,SSW,6.9,-,N/A,,Clear,200,2012-10-08 00:55:00
8:15 PM,45.5,23.5,42,29.97,10.0,South,6.9,-,N/A,,Clear,190,2012-10-08 01:15:00
8:35 PM,45.5,24.3,43,29.97,10.0,SSW,8.1,-,N/A,,Clear,200,2012-10-08 01:35:00
8:55 PM,44.8,24.4,45,29.98,10.0,South,6.9,-,N/A,,Clear,190,2012-10-08 01:55:00
9:15 PM,44.6,24.8,46,29.98,10.0,SSW,8.1,-,N/A,,Clear,200,2012-10-08 02:15:00
9:35 PM,45.5,24.8,44,29.98,10.0,SSW,10.4,-,N/A,,Clear,210,2012-10-08 02:35:00
9:55 PM,44.8,25.0,46,29.98,10.0,SW,8.1,-,N/A,,Clear,220,2012-10-08 02:55:00
10:15 PM,45.7,25.2,45,29.98,10.0,SW,10.4,-,N/A,,Clear,220,2012-10-08 03:15:00
10:35 PM,45.7,24.8,44,29.98,10.0,SW,9.2,-,N/A,,Clear,220,2012-10-08 03:35:00
10:55 PM,45.5,25.0,45,29.97,10.0,SW,8.1,-,N/A,,Clear,220,2012-10-08 03:55:00
11:15 PM,43.2,25.0,49,29.97,10.0,SSW,5.8,-,N/A,,Clear,200,2012-10-08 04:15:00
11:35 PM,42.3,25.3,51,29.97,10.0,SSW,8.1,-,N/A,,Clear,200,2012-10-08 04:35:00
11:55 PM,42.6,25.3,51,29.96,10.0,SSW,6.9,-,N/A,,Clear,200,2012-10-08 04:55:00